| time (UTC) | temp F | wind direction | speed MPH | gust MPH | rain 1hr in | rain 24hr in | rain mn in | humidity % | barometer mb |
| 20260505073425 | 40 | 289 | 3.0 | 6.0 | 0.00 | 0.00 | 0.00 | 57 | 1002.6 |
| 20260505072921 | 41 | 266 | 3.0 | 6.0 | 0.00 | 0.00 | 0.00 | 57 | 1002.7 |
| 20260505072418 | 41 | 284 | 5.0 | 8.0 | 0.00 | 0.00 | 0.00 | 56 | 1002.7 |
| 20260505071914 | 41 | 273 | 3.0 | 7.0 | 0.00 | 0.00 | 0.00 | 56 | 1002.6 |
| 20260505071410 | 41 | 286 | 1.0 | 5.0 | 0.00 | 0.00 | 0.00 | 56 | 1002.5 |
| 20260505070908 | 41 | 303 | 3.0 | 5.0 | 0.00 | 0.00 | 0.00 | 55 | 1002.7 |
| 20260505070404 | 41 | 274 | 4.0 | 5.0 | 0.00 | 0.00 | 0.00 | 55 | 1002.8 |
| 20260505065900 | 41 | 331 | 0.0 | 7.0 | 0.00 | 0.00 | 0.00 | 54 | 1002.7 |
| 20260505065357 | 41 | 308 | 3.0 | 6.0 | 0.00 | 0.00 | 0.00 | 54 | 1002.8 |
| 20260505064854 | 41 | 300 | 2.0 | 3.0 | 0.00 | 0.00 | 0.00 | 54 | 1002.6 |
| 20260505064351 | 42 | 314 | 1.0 | 4.0 | 0.00 | 0.00 | 0.00 | 53 | 1002.7 |
| 20260505063850 | 42 | 330 | 3.0 | 8.0 | 0.00 | 0.00 | 0.00 | 53 | 1003.1 |
| 20260505063345 | 42 | 312 | 3.0 | 9.0 | 0.00 | 0.00 | 0.00 | 52 | 1002.7 |
| 20260505062842 | 42 | 304 | 3.0 | 5.0 | 0.00 | 0.00 | 0.00 | 51 | 1003.1 |
| 20260505062339 | 42 | 285 | 3.0 | 7.0 | 0.00 | 0.00 | 0.00 | 51 | 1003.0 |
| 20260505061836 | 43 | 341 | 2.0 | 7.0 | 0.00 | 0.00 | 0.00 | 50 | 1003.0 |
| 20260505061334 | 43 | 324 | 3.0 | 10.0 | 0.00 | 0.00 | 0.00 | 50 | 1003.0 |
| 20260505060831 | 43 | 301 | 8.0 | 13.0 | 0.00 | 0.00 | 0.00 | 50 | 1003.0 |
| 20260505060328 | 43 | 317 | 4.0 | 9.0 | 0.00 | 0.00 | 0.00 | 49 | 1002.7 |
| 20260505055824 | 43 | 324 | 4.0 | 13.0 | 0.00 | 0.00 | 0.00 | 49 | 1003.0 |
| 20260505055320 | 43 | 300 | 7.0 | 8.0 | 0.00 | 0.00 | 0.00 | 49 | 1002.7 |
| 20260505054817 | 44 | 308 | 4.0 | 12.0 | 0.00 | 0.00 | 0.00 | 49 | 1002.8 |
| 20260505054315 | 44 | 320 | 10.0 | 11.0 | 0.00 | 0.00 | 0.00 | 49 | 1003.0 |
| 20260505053813 | 44 | 304 | 11.0 | 11.0 | 0.00 | 0.00 | 0.00 | 49 | 1002.8 |
| 20260505053309 | 44 | 34 | 2.0 | 10.0 | 0.00 | 0.00 | 0.00 | 49 | 1002.7 |
| 20260505052806 | 44 | 334 | 4.0 | 18.0 | 0.00 | 0.00 | 0.00 | 48 | 1002.6 |
| 20260505052304 | 44 | 322 | 4.0 | 12.0 | 0.00 | 0.00 | 0.00 | 49 | 1002.7 |
| 20260505051800 | 44 | 297 | 7.0 | 23.0 | 0.00 | 0.00 | 0.00 | 48 | 1002.7 |
| 20260505051258 | 44 | 323 | 9.0 | 12.0 | 0.00 | 0.00 | 0.00 | 49 | 1002.6 |
| 20260505050755 | 44 | 295 | 5.0 | 19.0 | 0.00 | 0.00 | 0.00 | 49 | 1002.6 |
| 20260505050254 | 44 | 38 | 0.0 | 9.0 | 0.00 | 0.00 | 0.00 | 51 | 1002.6 |
| 20260505041729 | 46 | 284 | 5.0 | 10.0 | 0.00 | 0.00 | 0.00 | 52 | 1001.6 |
| 20260505041226 | 46 | 331 | 7.0 | 13.0 | 0.00 | 0.00 | 0.00 | 51 | 1001.6 |
| 20260505040723 | 46 | 357 | 3.0 | 17.0 | 0.00 | 0.00 | 0.00 | 51 | 1001.5 |
| 20260505040220 | 47 | 331 | 6.0 | 20.0 | 0.00 | 0.00 | 0.00 | 50 | 1001.5 |
| 20260505035717 | 47 | 312 | 9.0 | 21.0 | 0.00 | 0.00 | 0.00 | 49 | 1001.4 |
| 20260505035213 | 47 | 349 | 4.0 | 13.0 | 0.00 | 0.00 | 0.00 | 50 | 1001.5 |
| 20260505034710 | 47 | 337 | 6.0 | 25.0 | 0.00 | 0.00 | 0.00 | 49 | 1001.5 |
| 20260505034207 | 47 | 293 | 5.0 | 13.0 | 0.00 | 0.00 | 0.00 | 50 | 1001.3 |
| 20260505033703 | 48 | 11 | 6.0 | 13.0 | 0.00 | 0.00 | 0.00 | 50 | 1001.2 |
| 20260505033202 | 48 | 331 | 5.0 | 22.0 | 0.00 | 0.00 | 0.00 | 49 | 1001.0 |
| 20260505032659 | 48 | 309 | 5.0 | 28.0 | 0.00 | 0.00 | 0.00 | 49 | 1001.1 |
| 20260505032155 | 48 | 315 | 5.0 | 21.0 | 0.00 | 0.00 | 0.00 | 48 | 1001.0 |
| 20260505031653 | 49 | 311 | 15.0 | 15.0 | 0.00 | 0.00 | 0.00 | 48 | 1000.9 |
| 20260505031149 | 49 | 308 | 5.0 | 17.0 | 0.00 | 0.00 | 0.00 | 47 | 1000.7 |
| 20260505030646 | 49 | 353 | 6.0 | 22.0 | 0.00 | 0.00 | 0.00 | 46 | 1000.6 |
| 20260505030141 | 49 | 332 | 11.0 | 24.0 | 0.00 | 0.00 | 0.00 | 46 | 1000.5 |
| 20260505025638 | 50 | 286 | 6.0 | 20.0 | 0.00 | 0.00 | 0.00 | 46 | 1000.4 |
| 20260505025136 | 50 | 290 | 7.0 | 16.0 | 0.00 | 0.00 | 0.00 | 45 | 1000.3 |
| 20260505024634 | 50 | 350 | 4.0 | 21.0 | 0.00 | 0.00 | 0.00 | 45 | 1000.3 |
| 20260505024131 | 50 | 319 | 9.0 | 32.0 | 0.00 | 0.00 | 0.00 | 44 | 1000.2 |
| 20260505023628 | 50 | 286 | 13.0 | 21.0 | 0.00 | 0.00 | 0.00 | 44 | 1000.1 |
| 20260505023125 | 51 | 317 | 4.0 | 17.0 | 0.00 | 0.00 | 0.00 | 44 | 1000.1 |
| 20260505022623 | 51 | 322 | 4.0 | 22.0 | 0.00 | 0.00 | 0.00 | 43 | 999.8 |
| 20260505022119 | 51 | 278 | 6.0 | 15.0 | 0.00 | 0.00 | 0.00 | 43 | 999.8 |
| 20260505021616 | 51 | 300 | 5.0 | 12.0 | 0.00 | 0.00 | 0.00 | 43 | 999.8 |
| 20260505021113 | 52 | 283 | 7.0 | 25.0 | 0.00 | 0.00 | 0.00 | 42 | 999.7 |
| 20260505020608 | 52 | 321 | 11.0 | 16.0 | 0.00 | 0.00 | 0.00 | 43 | 999.7 |
| 20260505020105 | 52 | 320 | 9.0 | 22.0 | 0.00 | 0.00 | 0.00 | 43 | 999.6 |
| 20260505015602 | 52 | 260 | 4.0 | 22.0 | 0.00 | 0.00 | 0.00 | 43 | 999.5 |
| 20260505015058 | 53 | 335 | 9.0 | 31.0 | 0.00 | 0.00 | 0.00 | 43 | 999.7 |
| 20260505014555 | 53 | 306 | 15.0 | 18.0 | 0.00 | 0.00 | 0.00 | 44 | 999.4 |
| 20260505014052 | 54 | 296 | 11.0 | 18.0 | 0.00 | 0.00 | 0.00 | 44 | 999.0 |
| 20260505013549 | 54 | 323 | 9.0 | 20.0 | 0.00 | 0.00 | 0.00 | 43 | 998.9 |
| 20260505013047 | 54 | 286 | 10.0 | 22.0 | 0.00 | 0.00 | 0.00 | 43 | 998.9 |
| 20260505012545 | 54 | 292 | 8.0 | 15.0 | 0.00 | 0.00 | 0.00 | 43 | 998.8 |
| 20260505012042 | 55 | 325 | 1.0 | 19.0 | 0.00 | 0.00 | 0.00 | 43 | 998.6 |
| 20260505011537 | 55 | 294 | 8.0 | 22.0 | 0.00 | 0.00 | 0.00 | 42 | 998.6 |
| 20260505011035 | 55 | 308 | 8.0 | 26.0 | 0.00 | 0.00 | 0.00 | 42 | 998.5 |
| 20260505010530 | 55 | 292 | 20.0 | 22.0 | 0.00 | 0.00 | 0.00 | 42 | 998.5 |
| 20260505010027 | 56 | 312 | 5.0 | 17.0 | 0.00 | 0.00 | 0.00 | 42 | 998.3 |
| 20260505005523 | 56 | 295 | 8.0 | 24.0 | 0.00 | 0.00 | 0.00 | 41 | 998.0 |
| 20260505005021 | 56 | 280 | 8.0 | 15.0 | 0.00 | 0.00 | 0.00 | 41 | 998.1 |
| 20260505004517 | 56 | 304 | 10.0 | 17.0 | 0.00 | 0.00 | 0.00 | 41 | 998.1 |
| 20260505004014 | 57 | 322 | 6.0 | 22.0 | 0.00 | 0.00 | 0.00 | 41 | 998.0 |
| 20260505003511 | 57 | 330 | 27.0 | 28.0 | 0.00 | 0.00 | 0.00 | 41 | 997.8 |
| 20260505003009 | 58 | 322 | 4.0 | 23.0 | 0.00 | 0.00 | 0.00 | 41 | 997.7 |
| 20260505002503 | 58 | 277 | 9.0 | 28.0 | 0.00 | 0.00 | 0.00 | 41 | 997.6 |
| 20260505002002 | 58 | 300 | 12.0 | 25.0 | 0.00 | 0.00 | 0.00 | 40 | 997.4 |
| 20260505001459 | 59 | 262 | 11.0 | 29.0 | 0.00 | 0.00 | 0.00 | 40 | 997.3 |
| 20260505000956 | 59 | 279 | 12.0 | 29.0 | 0.00 | 0.00 | 0.00 | 39 | 997.1 |
| 20260505000454 | 60 | 313 | 11.0 | 23.0 | 0.00 | 0.00 | 0.00 | 39 | 997.0 |
| 20260504235951 | 60 | 332 | 4.0 | 13.0 | 0.00 | 0.00 | 0.00 | 40 | 997.0 |
| 20260504235448 | 60 | 255 | 9.0 | 26.0 | 0.00 | 0.00 | 0.00 | 39 | 997.0 |
| 20260504234944 | 60 | 292 | 14.0 | 27.0 | 0.00 | 0.00 | 0.00 | 39 | 997.0 |
| 20260504234442 | 60 | 290 | 19.0 | 25.0 | 0.00 | 0.00 | 0.00 | 39 | 996.8 |
| 20260504233938 | 60 | 284 | 13.0 | 38.0 | 0.00 | 0.00 | 0.00 | 39 | 996.7 |
| 20260504233434 | 61 | 305 | 6.0 | 25.0 | 0.00 | 0.00 | 0.00 | 37 | 996.6 |
| 20260504232931 | 61 | 256 | 7.0 | 21.0 | 0.00 | 0.00 | 0.00 | 36 | 996.9 |
| 20260504232428 | 62 | 268 | 14.0 | 20.0 | 0.00 | 0.00 | 0.00 | 34 | 996.7 |
| 20260504231925 | 62 | 282 | 11.0 | 22.0 | 0.00 | 0.00 | 0.00 | 32 | 996.8 |
| 20260504231421 | 62 | 236 | 27.0 | 30.0 | 0.00 | 0.00 | 0.00 | 29 | 996.7 |
| 20260504230918 | 62 | 280 | 17.0 | 36.0 | 0.00 | 0.00 | 0.00 | 28 | 996.9 |
| 20260504230415 | 63 | 256 | 13.0 | 24.0 | 0.00 | 0.00 | 0.00 | 28 | 996.5 |
| 20260504225914 | 63 | 280 | 19.0 | 30.0 | 0.00 | 0.00 | 0.00 | 32 | 996.6 |
| 20260504225410 | 63 | 281 | 24.0 | 24.0 | 0.00 | 0.00 | 0.00 | 34 | 996.4 |
| 20260504224908 | 63 | 275 | 10.0 | 24.0 | 0.00 | 0.00 | 0.00 | 37 | 996.3 |
| 20260504224404 | 63 | 265 | 13.0 | 26.0 | 0.00 | 0.00 | 0.00 | 37 | 996.3 |
| 20260504223901 | 63 | 246 | 11.0 | 25.0 | 0.00 | 0.00 | 0.00 | 37 | 996.2 |
| 20260504223356 | 63 | 268 | 13.0 | 22.0 | 0.00 | 0.00 | 0.00 | 37 | 996.3 |
| 20260504222853 | 63 | 262 | 24.0 | 32.0 | 0.00 | 0.00 | 0.00 | 36 | 996.1 |
| 20260504222350 | 63 | 251 | 15.0 | 34.0 | 0.00 | 0.00 | 0.00 | 36 | 995.9 |
| 20260504221848 | 64 | 283 | 16.0 | 31.0 | 0.00 | 0.00 | 0.00 | 35 | 995.8 |
| 20260504221345 | 64 | 293 | 17.0 | 24.0 | 0.00 | 0.00 | 0.00 | 36 | 995.7 |
| 20260504220842 | 64 | 256 | 17.0 | 30.0 | 0.00 | 0.00 | 0.00 | 35 | 995.9 |
| 20260504220338 | 64 | 261 | 13.0 | 29.0 | 0.00 | 0.00 | 0.00 | 35 | 995.9 |
| 20260504215836 | 64 | 294 | 13.0 | 28.0 | 0.00 | 0.00 | 0.00 | 35 | 995.7 |
| 20260504215332 | 65 | 246 | 6.0 | 19.0 | 0.00 | 0.00 | 0.00 | 34 | 995.6 |
| 20260504214828 | 64 | 256 | 15.0 | 24.0 | 0.00 | 0.00 | 0.00 | 33 | 995.3 |
| 20260504214325 | 65 | 280 | 22.0 | 27.0 | 0.00 | 0.00 | 0.00 | 33 | 995.4 |
| 20260504213822 | 65 | 246 | 14.0 | 22.0 | 0.00 | 0.00 | 0.00 | 34 | 995.6 |
| 20260504213318 | 65 | 271 | 9.0 | 23.0 | 0.00 | 0.00 | 0.00 | 35 | 995.4 |
| 20260504212815 | 65 | 302 | 7.0 | 20.0 | 0.00 | 0.00 | 0.00 | 35 | 995.3 |
| 20260504212311 | 65 | 295 | 6.0 | 23.0 | 0.00 | 0.00 | 0.00 | 34 | 995.4 |
| 20260504211809 | 66 | 285 | 14.0 | 24.0 | 0.00 | 0.00 | 0.00 | 33 | 995.4 |
| 20260504211305 | 65 | 241 | 17.0 | 23.0 | 0.00 | 0.00 | 0.00 | 33 | 995.5 |
| 20260504210803 | 65 | 262 | 7.0 | 21.0 | 0.00 | 0.00 | 0.00 | 33 | 995.3 |
| 20260504210300 | 65 | 289 | 7.0 | 35.0 | 0.00 | 0.00 | 0.00 | 33 | 995.4 |
| 20260504205757 | 66 | 268 | 12.0 | 26.0 | 0.00 | 0.00 | 0.00 | 32 | 995.3 |
| 20260504205254 | 66 | 296 | 11.0 | 21.0 | 0.00 | 0.00 | 0.00 | 31 | 995.4 |
| 20260504204752 | 65 | 234 | 8.0 | 24.0 | 0.00 | 0.00 | 0.00 | 33 | 995.4 |
| 20260504204250 | 66 | 264 | 15.0 | 25.0 | 0.00 | 0.00 | 0.00 | 31 | 995.4 |
| 20260504203750 | 66 | 289 | 19.0 | 33.0 | 0.00 | 0.00 | 0.00 | 31 | 995.3 |
| 20260504203246 | 67 | 283 | 8.0 | 25.0 | 0.00 | 0.00 | 0.00 | 30 | 995.2 |
| 20260504202741 | 66 | 269 | 21.0 | 38.0 | 0.00 | 0.00 | 0.00 | 31 | 995.2 |
| 20260504202239 | 66 | 278 | 9.0 | 24.0 | 0.00 | 0.00 | 0.00 | 30 | 995.1 |
| 20260504201736 | 67 | 242 | 9.0 | 26.0 | 0.00 | 0.00 | 0.00 | 31 | 995.0 |
| 20260504201233 | 67 | 252 | 7.0 | 20.0 | 0.00 | 0.00 | 0.00 | 30 | 995.3 |
| 20260504200731 | 66 | 260 | 13.0 | 41.0 | 0.00 | 0.00 | 0.00 | 30 | 995.2 |
| 20260504200226 | 67 | 257 | 9.0 | 22.0 | 0.00 | 0.00 | 0.00 | 30 | 994.9 |
| 20260504195723 | 66 | 280 | 7.0 | 28.0 | 0.00 | 0.00 | 0.00 | 30 | 995.0 |
| 20260504195219 | 66 | 252 | 13.0 | 31.0 | 0.00 | 0.00 | 0.00 | 30 | 995.0 |
| 20260504194716 | 67 | 290 | 13.0 | 20.0 | 0.00 | 0.00 | 0.00 | 28 | 994.9 |
| 20260504194212 | 68 | 248 | 19.0 | 29.0 | 0.00 | 0.00 | 0.00 | 27 | 994.9 |
| 20260504193709 | 68 | 297 | 23.0 | 37.0 | 0.00 | 0.00 | 0.00 | 26 | 994.7 |
| 20260504193206 | 68 | 230 | 19.0 | 31.0 | 0.00 | 0.00 | 0.00 | 26 | 994.8 |
| 20260504192704 | 68 | 286 | 23.0 | 25.0 | 0.00 | 0.00 | 0.00 | 26 | 994.7 |
| 20260504192202 | 68 | 275 | 20.0 | 34.0 | 0.00 | 0.00 | 0.00 | 24 | 994.6 |
| 20260504191701 | 68 | 250 | 15.0 | 30.0 | 0.00 | 0.00 | 0.00 | 21 | 994.8 |
| 20260504191156 | 68 | 271 | 17.0 | 28.0 | 0.00 | 0.00 | 0.00 | 19 | 994.7 |
| 20260504190652 | 69 | 256 | 8.0 | 24.0 | 0.00 | 0.00 | 0.00 | 25 | 994.4 |
| 20260504190149 | 68 | 262 | 20.0 | 29.0 | 0.00 | 0.00 | 0.00 | 29 | 994.4 |
| 20260504185645 | 68 | 295 | 6.0 | 40.0 | 0.00 | 0.00 | 0.00 | 31 | 994.2 |
| 20260504185142 | 68 | 207 | 12.0 | 21.0 | 0.00 | 0.00 | 0.00 | 33 | 994.1 |
| 20260504184638 | 67 | 254 | 18.0 | 25.0 | 0.00 | 0.00 | 0.00 | 33 | 994.4 |
| 20260504184133 | 68 | 246 | 11.0 | 28.0 | 0.00 | 0.00 | 0.00 | 33 | 994.4 |
| 20260504183630 | 68 | 271 | 14.0 | 23.0 | 0.00 | 0.00 | 0.00 | 30 | 994.1 |
| 20260504183128 | 69 | 277 | 32.0 | 35.0 | 0.00 | 0.00 | 0.00 | 30 | 993.9 |
| 20260504182625 | 69 | 265 | 9.0 | 32.0 | 0.00 | 0.00 | 0.00 | 33 | 994.0 |
| 20260504182123 | 68 | 240 | 13.0 | 26.0 | 0.00 | 0.00 | 0.00 | 36 | 994.2 |
| 20260504181620 | 67 | 292 | 15.0 | 30.0 | 0.00 | 0.00 | 0.00 | 36 | 994.1 |
| 20260504181118 | 67 | 300 | 21.0 | 30.0 | 0.00 | 0.00 | 0.00 | 37 | 994.2 |
| 20260504180617 | 68 | 280 | 4.0 | 23.0 | 0.00 | 0.00 | 0.00 | 38 | 994.1 |
| 20260504180115 | 68 | 301 | 13.0 | 26.0 | 0.00 | 0.00 | 0.00 | 38 | 994.0 |
| 20260504175612 | 67 | 277 | 8.0 | 33.0 | 0.00 | 0.00 | 0.00 | 38 | 994.0 |
| 20260504175109 | 67 | 290 | 15.0 | 35.0 | 0.00 | 0.00 | 0.00 | 36 | 994.4 |
| 20260504174607 | 68 | 253 | 22.0 | 31.0 | 0.00 | 0.00 | 0.00 | 34 | 994.0 |
| 20260504174103 | 67 | 290 | 18.0 | 31.0 | 0.00 | 0.00 | 0.00 | 37 | 994.2 |
| 20260504173600 | 68 | 218 | 13.0 | 27.0 | 0.00 | 0.00 | 0.00 | 37 | 993.9 |
| 20260504173058 | 67 | 237 | 12.0 | 29.0 | 0.00 | 0.00 | 0.00 | 38 | 994.1 |
| 20260504172554 | 68 | 279 | 11.0 | 29.0 | 0.00 | 0.00 | 0.00 | 38 | 994.1 |
| 20260504172050 | 68 | 244 | 8.0 | 27.0 | 0.00 | 0.00 | 0.00 | 38 | 994.0 |
| 20260504171547 | 68 | 277 | 19.0 | 24.0 | 0.00 | 0.00 | 0.00 | 38 | 994.1 |
| 20260504171044 | 67 | 281 | 12.0 | 28.0 | 0.00 | 0.00 | 0.00 | 40 | 994.4 |
| 20260504170539 | 67 | 271 | 5.0 | 27.0 | 0.00 | 0.00 | 0.00 | 40 | 994.0 |
| 20260504150924 | 65 | 250 | 9.0 | 18.0 | 0.00 | 0.00 | 0.00 | 43 | 993.9 |
| 20260504150420 | 65 | 257 | 9.0 | 30.0 | 0.00 | 0.00 | 0.00 | 43 | 993.9 |
| 20260504140847 | 64 | 208 | 11.0 | 27.0 | 0.00 | 0.00 | 0.00 | 40 | 994.1 |
| 20260504140343 | 64 | 200 | 11.0 | 25.0 | 0.00 | 0.00 | 0.00 | 41 | 993.8 |
| 20260504130812 | 60 | 230 | 4.0 | 24.0 | 0.00 | 0.00 | 0.00 | 44 | 994.8 |
| 20260504130308 | 60 | 210 | 12.0 | 23.0 | 0.00 | 0.00 | 0.00 | 43 | 994.9 |
| 20260504120231 | 55 | 205 | 15.0 | 17.0 | 0.00 | 0.00 | 0.00 | 50 | 995.5 |
| 20260504110659 | 53 | 207 | 4.0 | 10.0 | 0.00 | 0.00 | 0.00 | 52 | 995.9 |
| 20260504110155 | 53 | 198 | 6.0 | 12.0 | 0.00 | 0.00 | 0.00 | 52 | 996.0 |
| 20260504100119 | 49 | 19 | 2.0 | 3.0 | 0.00 | 0.00 | 0.00 | 61 | 997.3 |
| 20260504081512 | 49 | 120 | 3.0 | 5.0 | 0.00 | 0.00 | 0.00 | 58 | 998.9 |
| 20260504081008 | 49 | 124 | 3.0 | 6.0 | 0.00 | 0.00 | 0.00 | 60 | 999.0 |
| 20260504080504 | 48 | 132 | 4.0 | 6.0 | 0.00 | 0.00 | 0.00 | 63 | 999.2 |